This demonstration page uses our WeatherBlox Daily Observations layout. Learn more.

38.89511, -77.03637

Hourly Observations for January 21, 2020

Temp ( °F °C ) Dew Point ( °F °C ) Humidity (%) Winds ( mph kmh ) Pressure ( in mb ) Visibility ( mi km ) Precip ( " mm )
12:52 am 00:52 Clear 27 -2.8 11 -11.7 51 51 NNW 12 19 30.44 1031 10 16.0934 0 0
1:52 am 01:52 Clear 27 -2.8 11 -11.7 51 51 NNW 9 15 30.45 1031 10 16.0934 0 0
2:52 am 02:52 Clear 26 -3.3 10 -12.2 51 51 NNW 10 17 30.46 1032 10 16.0934 0 0
3:52 am 03:52 Clear 25 -3.9 11 -11.7 55 55 NW 9 15 30.47 1032 10 16.0934 0 0
4:52 am 04:52 Clear 24 -4.4 11 -11.7 57 57 NNW 10 17 30.49 1032 10 16.0934 0 0
5:52 am 05:52 Clear 24 -4.4 10 -12.2 55 55 NNW 10 17 30.5 1033 10 16.0934 0 0
6:52 am 06:52 Clear 23 -5 10 -12.2 57 57 NNW 13 20 30.52 1034 10 16.0934 0 0
7:52 am 07:52 Sunny 24 -4.4 10 -12.2 55 55 NNW 12 19 30.54 1034 10 16.0934 0 0
8:52 am 08:52 Sunny 26 -3.3 11 -11.7 53 53 NNW 17 28 30.55 1034 10 16.0934 0 0
9:52 am 09:52 Sunny 29 -1.7 12 -11.1 49 49 NNW 14 22 30.56 1035 10 16.0934 0 0
10:52 am 10:52 Sunny 32 0 13 -10.6 45 45 N 13 20 30.55 1035 10 16.0934 0 0
11:52 am 11:52 Sunny 34 1.1 13 -10.6 42 42 NNW 14 22 30.52 1033 10 16.0934 0 0
12:52 pm 12:52 Mostly Sunny 36 2.2 14 -10 40 40 NNW 13 20 30.49 1032 10 16.0934 0 0
1:07 pm 13:07 Mostly Sunny 35 1.7 14 -10 42 42 NW 10 17 30.49 1033 10 16.0934 0 0
1:52 pm 13:52 Mostly Sunny 37 2.8 14 -10 39 39 N 13 20 30.47 1032 10 16.0934 0 0
2:52 pm 14:52 Mostly Sunny 37 2.8 13 -10.6 37 37 N 13 20 30.46 1032 10 16.0934 0 0
3:52 pm 15:52 Mostly Sunny 37 2.8 15 -9.4 41 41 N 9 15 30.46 1031 10 16.0934 0 0
4:52 pm 16:52 Mostly Sunny 35 1.7 16 -8.9 46 46 NNW 14 22 30.47 1032 10 16.0934 0 0
5:52 pm 17:52 Mostly Clear 33 0.6 16 -8.9 49 49 NNW 14 22 30.49 1032 10 16.0934 0 0
6:52 pm 18:52 Mostly Clear 32 0 16 -8.9 52 52 NNW 10 17 30.5 1033 10 16.0934 0 0
7:52 pm 19:52 Mostly Clear 31 -0.6 16 -8.9 54 54 NNW 9 15 30.5 1033 10 16.0934 0 0
8:52 pm 20:52 Clear 30 -1.1 16 -8.9 56 56 NNW 12 19 30.52 1033 10 16.0934 0 0
9:52 pm 21:52 Clear 30 -1.1 16 -8.9 56 56 NNW 12 19 30.51 1033 10 16.0934 0 0
10:52 pm 22:52 Mostly Clear 28 -2.2 16 -8.9 60 60 NNW 9 15 30.51 1033 10 16.0934 0 0
11:52 pm 23:52 Mostly Clear 28 -2.2 15 -9.4 58 58 NNW 9 15 30.48 1032 10 16.0934 0 0

Powered by AerisWeather